Погода в Каменном

Украина / Запорожская область     47˚52′28″N   35˚23′57″E
темп.,
°C
ветер,
м/с
пор.,
м/с
влажн.,
%
обл.,
%
осадки,
мм/ч
давл.,
гПа
погр.,
м
5 декабря, сб
сб523:00в611790 0.0 1029429
02:00−2˚в611790 0.0 1029402
05:00−2˚в6117650 0.0 1029416
08:00−2˚в6127425 0.0 1030443
11:00+2˚в712590 0.0 1031575
14:00+3˚в712540 0.0 1030679
17:00в713460 0.0 1031528
20:00−2˚в715380 0.0 1032508
6 декабря, вс
вс623:00−3˚в615430 0.0 1032450
02:00−3˚всв814410 0.0 1033426
05:00−4˚всв815420 0.0 1033438
08:00−4˚всв815420 0.0 1033465
11:00−1˚в813340 0.0 1033571
14:00всв812390 0.0 1032668
17:00−3˚всв714550 0.0 1032545
20:00−5˚в816610 0.0 1033553
7 декабря, пн
пн723:00−5˚в916600 0.0 1032554
02:00−6˚в917610 0.0 1032549
05:00−6˚в916600 0.0 1031627
08:00−5˚в917610 0.0 1031702
11:00−2˚в9145131 0.0 1031730
14:00в9144816 0.0 1030752
17:00−2˚в715470 0.0 1030643
20:00−4˚в816550 0.0 1030628
8 декабря, вт
вт823:00−4˚в815630 0.0 1029638
02:00−5˚в815650 0.0 1029653
05:00−5˚в7156718 0.0 1027683
08:00−5˚в7147046 0.0 1028638
11:00−1˚в8145755 0.0 1027697
14:00в8125627 0.0 1026743
17:00−2˚в614670 0.0 1026625
20:00−3˚в715650 0.0 1027600
9 декабря, ср
ср923:00−3˚в714663 0.0 1027545
02:00−3˚в7137145 0.0 1027533
05:00−4˚в71274100 0.0 1027527
08:00−2˚в81378100 0.0 1027617
11:00в71176100 0.1 1027608
14:00+1˚в71274100 0.1 1026559
17:00в71279100 0.0 1026534
20:00вюв6128391 0.0 1027525